K4GZX-11 Weather Reports


time (UTC)temp
C
wind
direction
speed
KPH
gust
KPH
rain 1hr
cm
rain 24hr
cm
rain mn
cm
humidity
%
barometer
mb
20260509022356 17 172 0.0 0.0 0.00 0.00 0.00 78 1014.8
20260509021856 17 172 0.0 0.0 0.00 0.00 0.00 78 1014.9
20260509021356 17 172 0.0 0.0 0.00 0.00 0.00 78 1015.0
20260509020856 17 172 0.0 0.0 0.00 0.00 0.00 78 1014.8
20260509020356 17 172 0.0 0.0 0.00 0.00 0.00 78 1014.7
20260509015856 17 172 0.0 0.0 0.00 0.00 0.00 78 1014.5
20260509015401 17 172 0.0 0.0 0.00 0.00 0.00 78 1014.7
20260509014908 17 172 0.0 0.0 0.00 0.00 0.00 78 1014.8
20260509014356 17 172 0.0 0.0 0.00 0.00 0.00 77 1014.7
20260509013856 17 172 0.0 0.0 0.00 0.00 0.00 77 1014.8
20260509013356 17 172 0.0 0.0 0.00 0.00 0.00 77 1014.6
20260509012856 17 172 0.0 0.0 0.00 0.00 0.00 76 1014.7
20260509012356 17 172 0.0 0.0 0.00 0.00 0.00 76 1014.8
20260509011856 18 172 0.0 0.0 0.00 0.00 0.00 76 1014.7
20260509011356 18 172 0.0 0.0 0.00 0.00 0.00 76 1014.6
20260509010856 18 172 0.0 0.0 0.00 0.00 0.00 75 1014.6
20260509010356 18 172 0.0 0.0 0.00 0.00 0.00 75 1014.5
20260509005856 18 172 0.0 0.0 0.00 0.00 0.00 75 1014.3
20260509005358 18 172 0.0 0.0 0.00 0.00 0.00 74 1014.2
20260509004905 18 172 0.0 0.0 0.00 0.00 0.00 74 1014.4
20260509004413 18 172 0.0 0.0 0.00 0.00 0.00 74 1014.3
20260509003908 18 172 0.0 0.0 0.00 0.00 0.00 74 1014.3
20260509003401 18 172 0.0 0.0 0.00 0.00 0.00 74 1014.2
20260509002908 18 172 0.0 0.0 0.00 0.00 0.00 75 1014.1
20260509002356 19 172 0.0 0.0 0.00 0.00 0.00 75 1014.2
20260509001856 19 172 0.0 0.0 0.00 0.00 0.00 75 1014.3
20260509001356 19 172 0.0 0.0 0.00 0.00 0.00 74 1014.3
20260509000856 19 172 0.0 0.0 0.00 0.00 0.00 74 1014.4
20260509000356 19 172 0.0 0.0 0.00 0.00 0.00 74 1014.5
20260508235856 19 172 0.0 0.0 0.00 0.00 0.00 73 1014.3
20260508235356 19 172 0.0 0.0 0.00 0.00 0.00 72 1014.4
20260508234856 20 172 0.0 0.0 0.00 0.00 0.00 72 1014.4
20260508234356 20 172 0.0 0.0 0.00 0.00 0.00 72 1014.3
20260508233856 20 172 0.0 0.0 0.00 0.00 0.00 72 1014.1
20260508233356 20 172 0.0 0.0 0.00 0.00 0.00 72 1014.1
20260508232856 20 172 0.0 0.0 0.00 0.00 0.00 71 1014.0
20260508232356 20 172 0.0 0.0 0.00 0.00 0.00 72 1013.9
20260508231856 20 172 0.0 0.0 0.00 0.00 0.00 69 1014.0
20260508231356 20 172 0.0 0.0 0.00 0.00 0.00 68 1014.0
20260508230856 20 172 0.0 0.0 0.00 0.00 0.00 68 1014.0
20260508230356 20 172 0.0 0.0 0.00 0.00 0.00 68 1014.1
20260508225856 20 172 0.0 0.0 0.00 0.00 0.00 68 1014.0
20260508225356 20 172 0.0 0.0 0.00 0.00 0.00 67 1014.2
20260508224856 20 172 0.0 0.0 0.00 0.00 0.00 67 1014.2
20260508224356 20 172 0.0 0.0 0.00 0.00 0.00 68 1014.2
20260508223856 20 172 0.0 0.0 0.00 0.00 0.00 68 1014.1
20260508223356 20 172 0.0 0.0 0.00 0.00 0.00 67 1014.0
20260508222856 20 172 0.0 0.0 0.00 0.00 0.00 67 1014.2
20260508222356 20 172 0.0 0.0 0.00 0.00 0.00 65 1014.3
20260508221856 20 172 0.0 0.0 0.00 0.00 0.00 65 1014.2
20260508221356 20 172 0.0 0.0 0.00 0.00 0.00 63 1014.2
20260508220856 20 172 0.0 0.0 0.00 0.00 0.00 62 1014.1
20260508220401 20 172 0.0 0.0 0.00 0.00 0.00 62 1014.2
20260508215908 21 172 0.0 0.0 0.00 0.00 0.00 61 1014.3
20260508215401 21 172 0.0 0.0 0.00 0.00 0.00 61 1014.2
20260508214908 21 172 0.0 0.0 0.00 0.00 0.00 59 1014.2
20260508214356 21 172 0.0 0.0 0.00 0.00 0.00 58 1013.9
20260508213856 21 172 0.0 0.0 0.00 0.00 0.00 57 1014.1
20260508213356 21 172 0.0 0.0 0.00 0.00 0.00 58 1014.2
20260508212856 21 172 0.0 0.0 0.00 0.00 0.00 57 1014.1
20260508212356 21 172 0.0 0.0 0.00 0.00 0.00 58 1014.1
20260508211856 21 172 0.0 0.0 0.00 0.00 0.00 57 1014.1
20260508211356 21 172 0.0 0.0 0.00 0.00 0.00 56 1014.2
20260508210856 21 172 0.0 0.0 0.00 0.00 0.00 56 1014.3
20260508210356 21 172 0.0 0.0 0.00 0.00 0.00 56 1014.3
20260508205856 21 172 0.0 0.0 0.00 0.00 0.00 57 1014.1
20260508205356 21 172 0.0 0.0 0.00 0.00 0.00 54 1014.3
20260508204856 21 172 0.0 0.0 0.00 0.00 0.00 55 1014.4
20260508204356 21 172 0.0 0.0 0.00 0.00 0.00 56 1014.4
20260508203856 21 172 0.0 0.0 0.00 0.00 0.00 55 1014.4
20260508203401 21 172 0.0 0.0 0.00 0.00 0.00 54 1014.3
20260508202908 22 172 0.0 0.0 0.00 0.00 0.00 53 1014.4
20260508202356 22 172 0.0 0.0 0.00 0.00 0.00 55 1014.3
20260508201856 22 172 0.0 0.0 0.00 0.00 0.00 54 1014.3
20260508201356 22 172 0.0 0.0 0.00 0.00 0.00 54 1014.4
20260508200856 22 172 0.0 0.0 0.00 0.00 0.00 52 1014.6
20260508200401 22 172 0.0 0.0 0.00 0.00 0.00 53 1014.6
20260508195908 22 172 0.0 0.0 0.00 0.00 0.00 54 1014.7
20260508195356 22 172 0.0 0.0 0.00 0.00 0.00 52 1014.9
20260508194856 22 172 0.0 0.0 0.00 0.00 0.00 48 1014.8
20260508194356 22 172 0.0 0.0 0.00 0.00 0.00 51 1015.0
20260508193904 23 172 0.0 0.0 0.00 0.00 0.00 48 1014.8
20260508193411 23 172 0.0 0.0 0.00 0.00 0.00 49 1014.9
20260508192919 23 172 0.0 0.0 0.00 0.00 0.00 48 1015.2
20260508192414 23 172 0.0 0.0 0.00 0.00 0.00 48 1015.3
20260508191910 23 172 0.0 0.0 0.00 0.00 0.00 47 1015.5
20260508191417 23 172 0.0 0.0 0.00 0.00 0.00 44 1015.5
20260508190925 23 172 0.0 0.0 0.00 0.00 0.00 50 1015.5
20260508190408 23 172 0.0 0.0 0.00 0.00 0.00 45 1015.3
20260508185856 23 172 0.0 0.0 0.00 0.00 0.00 47 1015.4
20260508185356 23 172 0.0 0.0 0.00 0.00 0.00 48 1015.5
20260508184856 23 172 0.0 0.0 0.00 0.00 0.00 49 1015.6
20260508184356 23 172 0.0 0.0 0.00 0.00 0.00 44 1015.8
20260508183856 23 172 0.0 0.0 0.00 0.00 0.00 48 1015.7
20260508183356 24 172 0.0 0.0 0.00 0.00 0.00 46 1015.8
20260508182856 23 172 0.0 0.0 0.00 0.00 0.00 49 1015.9
20260508182356 23 172 0.0 0.0 0.00 0.00 0.00 45 1016.0
20260508181856 24 172 0.0 0.0 0.00 0.00 0.00 47 1016.0
20260508181356 23 172 0.0 0.0 0.00 0.00 0.00 49 1016.1
20260508180900 23 172 0.0 0.0 0.00 0.00 0.00 45 1016.0
20260508180408 24 172 0.0 0.0 0.00 0.00 0.00 48 1016.4
20260508175856 24 172 0.0 0.0 0.00 0.00 0.00 45 1016.3
20260508175356 24 172 0.0 0.0 0.00 0.00 0.00 47 1016.3
20260508174856 23 172 0.0 0.0 0.00 0.00 0.00 49 1016.6
20260508174356 23 172 0.0 0.0 0.00 0.00 0.00 51 1016.6
20260508173856 23 172 0.0 0.0 0.00 0.00 0.00 49 1016.4
20260508173356 23 172 0.0 0.0 0.00 0.00 0.00 48 1016.6
20260508172856 23 172 0.0 0.0 0.00 0.00 0.00 52 1016.5
20260508172356 23 172 0.0 0.0 0.00 0.00 0.00 50 1016.6
20260508171856 23 172 0.0 0.0 0.00 0.00 0.00 52 1016.7
20260508171356 22 172 0.0 0.0 0.00 0.00 0.00 55 1016.8
20260508170856 23 172 0.0 0.0 0.00 0.00 0.00 50 1016.9
20260508170356 23 172 0.0 0.0 0.00 0.00 0.00 53 1017.0
20260508165856 23 172 0.0 0.0 0.00 0.00 0.00 52 1017.0
20260508165400 23 172 0.0 0.0 0.00 0.00 0.00 53 1017.0
20260508164908 23 172 0.0 0.0 0.00 0.00 0.00 54 1017.3
20260508164356 22 172 0.0 0.0 0.00 0.00 0.00 54 1017.3
20260508163902 22 172 0.0 0.0 0.00 0.00 0.00 53 1017.3
20260508163410 21 172 0.0 0.0 0.00 0.00 0.00 56 1017.4
20260508162917 21 172 0.0 0.0 0.00 0.00 0.00 57 1017.5
20260508162425 21 172 0.0 0.0 0.00 0.00 0.00 57 1017.6
20260508161932 21 172 0.0 0.0 0.00 0.00 0.00 56 1017.6
20260508161401 20 172 0.0 0.0 0.00 0.00 0.00 59 1017.7
20260508160908 20 172 0.0 0.0 0.00 0.00 0.00 57 1017.9
20260508160356 20 172 0.0 0.0 0.00 0.00 0.00 61 1017.9
20260508155856 20 172 0.0 0.0 0.00 0.00 0.00 59 1017.9
20260508155356 20 172 0.0 0.0 0.00 0.00 0.00 61 1018.0
20260508154856 19 172 0.0 0.0 0.00 0.03 0.00 61 1018.1
20260508154356 19 172 0.0 0.0 0.00 0.03 0.00 64 1018.1
20260508153856 18 172 0.0 0.0 0.00 0.05 0.00 67 1018.2
20260508153356 18 172 0.0 0.0 0.00 0.05 0.00 67 1018.0
20260508152856 18 172 0.0 0.0 0.00 0.08 0.00 70 1018.2
20260508152356 18 172 0.0 0.0 0.00 0.10 0.00 71 1018.4
20260508151856 18 172 0.0 0.0 0.00 0.10 0.00 72 1018.4
20260508151356 17 172 0.0 0.0 0.00 0.13 0.00 72 1018.4
20260508150856 17 172 0.0 0.0 0.00 0.15 0.00 73 1018.4
20260508150356 17 172 0.0 0.0 0.00 0.18 0.00 73 1018.3
20260508145856 17 172 0.0 0.0 0.00 0.23 0.00 76 1018.3
20260508145356 16 172 0.0 0.0 0.00 0.25 0.00 77 1018.2
20260508144856 16 172 0.0 0.0 0.00 0.28 0.00 79 1018.2
20260508144356 16 172 0.0 0.0 0.00 0.30 0.00 79 1018.2
20260508143856 16 172 0.0 0.0 0.00 0.36 0.00 81 1018.2
20260508143356 16 172 0.0 0.0 0.00 0.38 0.00 81 1018.1
20260508142856 16 172 0.0 0.0 0.00 0.43 0.00 81 1018.1
20260508142356 15 172 0.0 0.0 0.00 0.46 0.00 83 1018.1
20260508141856 15 172 0.0 0.0 0.00 0.51 0.00 84 1018.1
20260508141356 15 172 0.0 0.0 0.00 0.53 0.00 85 1018.2
20260508140856 15 172 0.0 0.0 0.00 0.56 0.00 85 1018.3
20260508140400 15 172 0.0 0.0 0.00 0.58 0.00 86 1018.4
20260508135908 15 172 0.0 0.0 0.00 0.64 0.00 86 1018.6
20260508135356 14 172 0.0 0.0 0.00 0.66 0.00 87 1018.6
20260508134856 14 172 0.0 0.0 0.00 0.71 0.00 87 1018.7
20260508134356 13 172 0.0 0.0 0.00 0.74 0.00 87 1018.6
20260508133856 13 172 0.0 0.0 0.00 0.79 0.00 88 1018.6
20260508133356 13 172 0.0 0.0 0.00 0.84 0.00 88 1018.6
20260508132856 13 172 0.0 0.0 0.00 0.89 0.00 88 1018.5
20260508132356 12 172 0.0 0.0 0.00 0.91 0.00 88 1018.5
20260508131856 12 172 0.0 0.0 0.00 0.97 0.00 88 1018.5
20260508131141 12 172 0.0 0.0 0.00 1.02 0.00 88 1018.3
20260508130641 12 172 0.0 0.0 0.00 1.07 0.00 88 1018.4
20260508130141 12 172 0.0 0.0 0.00 1.09 0.00 88 1018.4
20260508125641 12 172 0.0 0.0 0.00 1.14 0.00 88 1018.4
20260508125141 11 172 0.0 0.0 0.00 1.19 0.00 88 1018.4
20260508124641 11 172 0.0 0.0 0.00 1.22 0.00 88 1018.2
20260508124141 11 172 0.0 0.0 0.00 1.24 0.00 88 1018.1
20260508123641 11 172 0.0 0.0 0.00 1.27 0.00 88 1018.0
20260508123141 11 172 0.0 0.0 0.00 1.30 0.00 87 1018.0
20260508122641 11 172 0.0 0.0 0.00 1.32 0.00 87 1017.9
20260508122146 10 172 0.0 0.0 0.00 1.35 0.00 87 1017.8
20260508121653 10 172 0.0 0.0 0.00 1.37 0.00 87 1017.7
20260508121141 10 172 0.0 0.0 0.00 1.37 0.00 87 1017.7
20260508120641 10 172 0.0 0.0 0.00 1.40 0.00 87 1017.6
20260508120141 10 172 0.0 0.0 0.00 1.42 0.00 87 1017.6
20260508115641 10 172 0.0 0.0 0.00 1.45 0.00 87 1017.5
20260508115141 10 172 0.0 0.0 0.00 1.50 0.00 87 1017.4
20260508114645 10 172 0.0 0.0 0.00 1.50 0.00 86 1017.4
20260508114153 10 172 0.0 0.0 0.00 1.55 0.00 86 1017.2
20260508113641 10 172 0.0 0.0 0.00 1.57 0.00 86 1017.3
20260508113141 10 172 0.0 0.0 0.00 1.60 0.00 86 1017.2
20260508112641 10 172 0.0 0.0 0.00 1.65 0.00 86 1017.2
20260508112141 10 172 0.0 0.0 0.00 1.68 0.00 86 1017.2
20260508111641 10 172 0.0 0.0 0.00 1.70 0.00 86 1017.1
20260508111141 10 172 0.0 0.0 0.00 1.73 0.00 86 1017.0
20260508110641 10 172 0.0 0.0 0.00 1.75 0.00 86 1016.9
20260508110141 10 172 0.0 0.0 0.00 1.78 0.00 86 1016.7
20260508105641 10 172 0.0 0.0 0.00 1.80 0.00 86 1016.5
20260508105141 10 172 0.0 0.0 0.00 1.85 0.00 85 1016.4
20260508104641 10 172 0.0 0.0 0.00 1.85 0.00 85 1016.1
20260508104141 10 172 0.0 0.0 0.00 1.88 0.00 85 1016.0
20260508103641 10 172 0.0 0.0 0.00 1.88 0.00 85 1016.0
20260508103141 10 172 0.0 0.0 0.00 1.91 0.00 85 1016.0
20260508102641 10 172 0.0 0.0 0.00 1.91 0.00 85 1016.0
20260508102141 10 172 0.0 0.0 0.00 1.93 0.00 85 1015.9
20260508101641 10 172 0.0 0.0 0.00 1.93 0.00 85 1016.0
20260508101141 10 172 0.0 0.0 0.00 1.96 0.00 85 1015.9
20260508100641 10 172 0.0 0.0 0.00 1.96 0.00 85 1015.8
20260508100141 10 172 0.0 0.0 0.00 1.96 0.00 85 1015.7
20260508095645 10 172 0.0 0.0 0.00 1.96 0.00 85 1015.8
20260508095153 10 172 0.0 0.0 0.00 1.96 0.00 85 1015.7
20260508094641 10 172 0.0 0.0 0.00 1.96 0.00 85 1015.7
20260508094141 10 172 0.0 0.0 0.00 1.96 0.00 85 1015.4
20260508093641 10 172 0.0 0.0 0.00 1.96 0.00 84 1015.3
20260508093141 10 172 0.0 0.0 0.00 1.96 0.00 85 1015.3
20260508092641 10 172 0.0 0.0 0.00 1.96 0.00 85 1015.3
20260508092141 10 172 0.0 0.0 0.00 1.96 0.00 85 1015.4
20260508091645 10 172 0.0 0.0 0.00 1.96 0.00 84 1015.2
20260508091153 10 172 0.0 0.0 0.00 1.96 0.00 84 1015.2
20260508090645 10 172 0.0 0.0 0.00 1.96 0.00 84 1015.2
20260508090153 10 172 0.0 0.0 0.00 1.96 0.00 84 1015.2
20260508085641 11 172 0.0 0.0 0.00 1.98 0.00 84 1015.0
20260508085145 11 172 0.0 0.0 0.00 1.98 0.00 85 1015.0
20260508084653 11 172 0.0 0.0 0.00 2.01 0.00 85 1014.8
20260508084146 11 172 0.0 0.0 0.00 2.03 0.00 85 1014.8
20260508083653 11 172 0.0 0.0 0.00 2.06 0.00 85 1014.8
20260508083141 11 172 0.0 0.0 0.00 2.08 0.00 85 1014.7
20260508082641 11 172 0.0 0.0 0.00 2.08 0.00 85 1014.8
20260508082141 11 172 0.0 0.0 0.00 2.08 0.00 84 1014.8
20260508081645 11 172 0.0 0.0 0.00 2.08 0.00 84 1014.7
20260508081153 11 172 0.0 0.0 0.00 2.08 0.00 84 1014.7
20260508080641 11 172 0.0 0.0 0.00 2.08 0.00 84 1014.7
20260508080141 11 172 0.0 0.0 0.00 2.08 0.00 84 1014.8
20260508075641 11 172 0.0 0.0 0.00 2.08 0.00 84 1014.9
20260508075141 11 172 0.0 0.0 0.00 2.08 0.00 84 1014.8
20260508074641 11 172 0.0 0.0 0.00 2.08 0.00 84 1015.0
20260508074141 11 172 0.0 0.0 0.00 2.08 0.00 83 1014.8
20260508073641 11 172 0.0 0.0 0.00 2.08 0.00 83 1014.8
20260508073145 11 172 0.0 0.0 0.00 2.08 0.00 83 1014.8
20260508072653 11 172 0.0 0.0 0.00 2.08 0.00 83 1014.7
20260508072141 11 172 0.0 0.0 0.00 2.08 0.00 83 1014.7
20260508071641 11 172 0.0 0.0 0.00 2.11 0.00 83 1014.7
20260508071141 12 172 0.0 0.0 0.00 2.11 0.00 82 1014.8
20260508070641 12 172 0.0 0.0 0.00 2.13 0.00 82 1014.8
20260508070142 12 172 0.0 0.0 0.00 2.16 0.00 82 1014.7
20260508065650 12 172 0.0 0.0 0.00 2.18 0.00 82 1014.7
20260508065157 12 172 0.0 0.0 0.00 2.21 0.00 82 1014.7
20260508064653 12 172 0.0 0.0 0.00 2.26 0.00 82 1014.7
20260508063816 12 172 0.0 0.0 0.00 2.34 0.00 83 1014.7
20260508063252 12 172 0.0 0.0 0.00 2.36 0.00 83 1014.8
20260508062752 12 172 0.0 0.0 0.00 2.41 0.00 82 1014.8
20260508062252 12 172 0.0 0.0 0.00 2.46 0.00 82 1014.8
20260508061756 12 172 0.0 0.0 0.00 2.49 0.00 82 1014.7
20260508061304 12 172 0.0 0.0 0.00 2.54 0.00 82 1014.7
20260508060752 12 172 0.0 0.0 0.00 2.59 0.00 83 1014.7
20260508060252 12 172 0.0 0.0 0.00 2.64 0.00 83 1014.8
20260508055752 12 172 0.0 0.0 0.00 2.67 0.00 83 1014.8
20260508055252 12 172 0.0 0.0 0.00 2.72 0.00 82 1014.9
20260508054707 13 172 0.0 0.0 0.00 2.74 0.00 82 1014.9
20260508054207 13 172 0.0 0.0 0.00 2.77 0.00 82 1014.9
20260508053707 13 172 0.0 0.0 0.00 2.79 0.00 82 1014.9
20260508053207 13 172 0.0 0.0 0.00 2.82 0.00 82 1014.8
20260508052707 13 172 0.0 0.0 0.00 2.84 0.00 82 1014.8
20260508052207 13 172 0.0 0.0 0.00 2.87 0.00 81 1014.7
20260508051707 13 172 0.0 0.0 0.00 2.87 0.00 81 1014.8
20260508051207 13 172 0.0 0.0 0.00 2.90 0.00 81 1014.7
20260508050707 13 172 0.0 0.0 0.00 2.90 0.00 80 1014.7
20260508050212 13 172 0.0 0.0 0.00 2.90 0.00 79 1014.8
20260508045719 13 172 0.0 0.0 0.00 2.90 0.00 79 1014.8
20260508045207 13 172 0.0 0.0 0.00 2.90 0.00 78 1015.0
20260508044707 13 172 0.0 0.0 0.00 2.90 0.00 78 1014.8
20260508044207 14 172 0.0 0.0 0.00 2.90 0.00 78 1014.7
20260508043707 14 172 0.0 0.0 0.00 2.92 0.00 78 1014.8
20260508043207 14 172 0.0 0.0 0.00 2.92 0.00 78 1014.7
20260508042707 14 172 0.0 0.0 0.00 2.95 0.00 77 1014.8
20260508042207 14 172 0.0 0.0 0.00 2.97 0.00 77 1014.7
20260508041707 14 172 0.0 0.0 0.00 2.97 0.00 78 1014.6
20260508041207 14 172 0.0 0.0 0.00 3.00 0.00 78 1014.7
20260508040707 14 172 0.0 0.0 0.00 3.00 0.00 77 1014.6
20260508040207 15 172 0.0 0.0 0.00 3.00 0.00 77 1014.5
20260508035707 15 172 0.0 0.0 0.00 3.00 0.00 77 1014.5
20260508035207 15 172 0.0 0.0 0.00 3.00 0.00 77 1014.5
20260508034707 15 172 0.0 0.0 0.00 3.02 0.00 77 1014.5
20260508034207 15 172 0.0 0.0 0.00 3.07 0.00 76 1014.5
20260508033714 15 172 0.0 0.0 0.00 3.10 0.00 76 1014.5
20260508033221 15 172 0.0 0.0 0.00 3.12 0.00 76 1014.4
20260508032724 15 172 0.0 0.0 0.00 3.17 0.00 76 1014.6
20260508032231 15 172 0.0 0.0 0.00 3.23 0.00 76 1014.4
20260508031711 15 172 0.0 0.0 0.00 3.25 0.00 76 1014.5
20260508031219 15 172 0.0 0.0 0.00 3.30 0.00 76 1014.5
20260508030707 15 172 0.0 0.0 0.00 3.35 0.00 75 1014.4
20260508030207 15 172 0.0 0.0 0.00 3.40 0.00 75 1014.4
20260508025707 16 172 0.0 0.0 0.00 3.45 0.00 75 1014.4
20260508025207 16 172 0.0 0.0 0.00 3.53 0.00 75 1014.4
20260508024707 16 172 0.0 0.0 0.00 3.58 0.00 74 1014.2
20260508024212 16 172 0.0 0.0 0.00 3.66 0.00 74 1014.3
20260508023719 16 172 0.0 0.0 0.00 3.71 0.00 75 1014.2
20260508023207 16 172 0.0 0.0 0.00 3.78 0.00 74 1014.0
20260508022713 16 172 0.0 0.0 0.00 3.84 0.00 74 1013.9